Regional Weather Roundup
Issued by NWS

Home | Current Version | Previous Version | Graphics & Text | Print | Product List | Glossary On
Versions: 1 2 3 4 5 6 7 8 9 10 11 12 13 14 15 16 17 18 19 20 21 22 23 24 25 26 27 28 29 30 31 32 33 34 35 36 37 38 39 40 41 42 43 44 45 46 47 48 49 50
599
ASUS43 KLSX 111957
RWRMO

WEATHER SUMMARY FOR MISSOURI
NATIONAL WEATHER SERVICE SPRINGFIELD MO
200 PM CST THU FEB 11 2016

NOTE: "FAIR" INDICATES FEW OR NO CLOUDS BELOW 12,000 FEET WITH NO
       SIGNIFICANT WEATHER AND/OR OBSTRUCTIONS TO VISIBILITY.
       CURRENT SKY AND/OR WEATHER CONDITIONS ARE NOT AVAILABLE FOR
       CHILLICOTHE AND FARMINGTON.

MOZ001>031-035>038-043-044-053-054-112100-
...NORTHERN AND WESTERN MISSOURI...

CITY           SKY/WX    TMP DP  RH WIND       PRES   REMARKS
KANSAS CTY INT CLOUDY    34  21  59 E7        30.23F WCI  28
LEE`S SUMMIT   SUNNY     35  20  54 E7        30.23F WCI  29
ST JOSEPH      CLOUDY    31  18  58 CALM      30.25F
CHILLICOTHE      N/A     31  14  49 VRB5      30.28F WCI  26

$$
MOZ066>068-077>081-088>096-101>105-112100-
...SOUTHWEST MISSOURI...

CITY           SKY/WX    TMP DP  RH WIND       PRES   REMARKS
SPRINGFIELD    SUNNY     46  17  31 SE5       30.15F
JOPLIN         SUNNY     46  22  38 NE7       30.18F

$$
MOZ032>034-039>042-045>050-055>058-069>072-112100-
...CENTRAL MISSOURI...

CITY           SKY/WX    TMP DP  RH WIND       PRES   REMARKS
COLUMBIA       NOT AVBL
JEFFERSON CITY SUNNY     34  19  54 S5        30.26F WCI  30
SEDALIA        SUNNY     38  18  44 E7        30.25F

$$
MOZ051-052-059>065-112100-
...EAST CENTRAL MISSOURI...

CITY           SKY/WX    TMP DP  RH WIND       PRES   REMARKS
ST LOUIS INTL  PTSUNNY   31  13  47 NE8       30.31R WCI  23

$$
MOZ072>076-082>087-097>100-106>115-112100-
...SOUTH CENTRAL AND SOUTHEAST MISSOURI...

CITY           SKY/WX    TMP DP  RH WIND       PRES   REMARKS
CAPE GIRARDEAU SUNNY     37  20  50 E9        30.26F
POPLAR BLUFF   SUNNY     39  22  50 NE10      30.24F
WEST PLAINS    SUNNY     44  17  33 E6        30.17F

$$



USA.gov is the U.S. government's official web portal to all federal, state and local government web resources and services.